Total_Precipitation_Accumulation
1.68 1.92 2.49 3.19 3.58 4.09 4.53 4.52 4.33 4.37 4.44 4.48 4.26 4.38 4.57 4.85 5.12 5.05 4.97 4.88 4.78 4.71 4.80 4.81 4.78 4.62 4.53 4.41 4.30 4.28 4.18 3.92 3.75 3.75 3.42 2.94 2.52 2.32 2.24 2.25 2.33 2.33 2.31
1.89 2.21 2.75 3.12 3.49 3.83 4.07 4.37 4.50 4.54 4.30 4.63 4.94 5.21 5.51 5.52 5.78 6.05 6.10 5.93 5.64 5.45 5.30 5.29 4.97 4.66 4.51 4.37 4.24 4.15 3.98 3.63 3.53 3.57 3.61 3.11 2.63 2.13 1.85 1.94 1.92 1.98 2.15
2.16 2.57 2.94 3.08 3.30 3.63 3.98 4.31 4.63 4.75 4.67 5.10 5.61 6.09 6.45 6.33 6.31 6.31 6.31 6.25 5.83 5.50 5.30 5.08 4.89 4.69 4.51 4.34 4.28 4.19 4.05 3.71 3.52 3.48 3.70 3.46 2.97 2.40 2.05 1.85 1.86 1.98 2.09
1.98 2.33 2.68 3.13 3.12 3.37 3.77 4.08 4.50 4.91 5.20 5.58 6.02 6.56 6.92 7.13 6.93 6.55 6.26 5.91 5.47 5.13 4.76 4.59 4.62 4.52 4.31 4.10 3.80 3.68 3.69 3.62 3.43 3.35 3.22 3.12 3.01 2.79 2.45 2.14 2.11 2.16 2.14
1.90 2.11 2.26 2.63 2.90 3.13 3.46 3.89 4.25 4.64 5.24 5.99 6.56 7.04 7.40 7.43 6.88 6.26 5.66 5.23 4.87 4.52 4.26 4.16 4.27 4.20 3.94 3.76 3.49 3.28 3.13 3.12 3.18 3.18 3.09 2.96 2.83 2.62 2.47 2.27 2.16 2.14 2.07
1.97 2.12 2.25 2.55 2.77 2.87 3.12 3.60 4.14 4.48 5.01 5.76 6.38 6.72 6.92 6.86 6.42 5.77 5.20 4.77 4.33 3.95 3.61 3.39 3.34 3.27 3.10 3.00 2.97 2.92 2.87 2.85 2.90 2.92 2.86 2.78 2.71 2.62 2.58 2.41 2.16 2.10 2.14
2.17 2.16 2.15 2.25 2.51 2.66 2.92 3.37 3.82 4.28 4.62 5.06 5.59 5.65 5.74 5.51 5.14 4.92 4.58 4.08 3.67 3.29 2.91 2.68 2.60 2.55 2.52 2.47 2.52 2.57 2.59 2.54 2.61 2.59 2.56 2.51 2.41 2.39 2.52 2.60 2.43 2.24 2.10
2.02 2.05 2.01 2.20 2.51 2.77 2.99 3.22 3.50 3.85 4.19 4.32 4.45 4.33 4.20 4.12 3.99 3.80 3.43 3.07 2.81 2.62 2.48 2.34 2.20 2.16 2.19 2.19 2.32 2.32 2.23 2.22 2.27 2.20 2.25 2.24 2.18 2.26 2.39 2.51 2.67 2.64 2.34
1.84 1.91 1.99 2.18 2.41 2.71 2.88 3.04 3.16 3.28 3.32 3.30 3.34 3.31 3.24 3.11 3.10 3.01 2.70 2.43 2.28 2.11 2.06 2.01 1.96 1.88 1.85 1.83 1.84 1.83 1.84 1.91 1.92 1.89 1.89 1.87 1.92 2.06 2.15 2.28 2.53 2.76 2.64
1.89 1.91 2.03 2.22 2.17 2.20 2.39 2.60 2.70 2.80 2.76 2.66 2.58 2.67 2.63 2.47 2.33 2.21 2.12 1.98 1.87 1.76 1.75 1.69 1.66 1.68 1.69 1.62 1.53 1.49 1.51 1.59 1.67 1.71 1.68 1.65 1.66 1.76 1.80 1.89 2.07 2.37 2.58
1.99 1.93 2.03 2.09 1.93 1.79 1.80 1.97 2.10 2.29 2.34 2.25 2.20 2.23 2.19 2.12 1.97 1.87 1.83 1.81 1.69 1.60 1.54 1.52 1.51 1.45 1.41 1.39 1.42 1.38 1.39 1.51 1.55 1.51 1.51 1.55 1.62 1.69 1.64 1.70 1.82 1.98 2.22
2.03 1.91 1.92 1.97 1.89 1.75 1.65 1.73 1.84 1.84 1.86 1.87 1.96 2.03 1.95 1.89 1.82 1.77 1.77 1.76 1.61 1.53 1.48 1.47 1.40 1.23 1.16 1.24 1.32 1.31 1.29 1.41 1.43 1.38 1.43 1.45 1.50 1.58 1.60 1.70 1.79 1.89 2.07
2.21 2.10 1.95 1.90 1.88 1.72 1.66 1.69 1.71 1.68 1.62 1.61 1.63 1.70 1.71 1.66 1.64 1.50 1.47 1.49 1.45 1.41 1.33 1.27 1.26 1.19 1.08 1.10 1.12 1.15 1.15 1.20 1.27 1.27 1.34 1.40 1.48 1.49 1.53 1.62 1.69 1.81 1.89
2.18 2.02 1.96 1.90 1.78 1.68 1.65 1.67 1.58 1.45 1.47 1.49 1.61 1.60 1.60 1.64 1.65 1.58 1.49 1.42 1.35 1.29 1.24 1.15 1.10 1.08 1.03 0.93 0.89 0.93 1.02 1.11 1.13 1.12 1.24 1.32 1.39 1.40 1.49 1.52 1.60 1.69 1.88
2.14 2.03 1.93 1.81 1.64 1.50 1.46 1.40 1.36 1.28 1.28 1.34 1.46 1.55 1.49 1.45 1.49 1.55 1.43 1.25 1.18 1.09 1.07 1.01 0.96 0.97 0.90 0.79 0.81 0.85 0.87 1.00 1.05 1.05 1.11 1.18 1.22 1.23 1.27 1.25 1.40 1.59 1.78
2.22 2.13 2.00 1.86 1.64 1.50 1.42 1.35 1.26 1.16 1.17 1.22 1.38 1.46 1.43 1.38 1.36 1.40 1.37 1.29 1.21 1.15 1.11 1.06 1.01 0.96 0.82 0.78 0.75 0.76 0.82 0.91 1.02 1.12 1.12 1.05 1.03 1.00 0.95 0.99 1.11 1.31 1.56
2.17 2.13 2.05 1.89 1.65 1.54 1.50 1.54 1.37 1.20 1.24 1.27 1.28 1.32 1.37 1.40 1.39 1.36 1.36 1.35 1.36 1.33 1.23 1.11 1.06 0.99 0.88 0.77 0.65 0.64 0.70 0.89 1.04 1.14 1.13 0.95 0.87 0.98 0.99 1.01 1.02 1.11 1.24
2.30 2.26 2.08 1.88 1.64 1.47 1.41 1.42 1.38 1.28 1.32 1.27 1.19 1.19 1.20 1.22 1.23 1.27 1.32 1.33 1.33 1.30 1.23 1.13 1.06 1.02 0.82 0.70 0.61 0.64 0.68 0.81 0.86 0.89 0.98 1.06 1.05 0.98 1.02 1.03 1.13 1.20 1.30
2.17 2.12 1.93 1.79 1.70 1.54 1.45 1.39 1.34 1.35 1.28 1.17 1.10 1.04 1.00 1.05 1.06 1.12 1.23 1.34 1.34 1.23 1.12 1.04 1.01 0.98 0.83 0.74 0.70 0.71 0.73 0.79 0.75 0.72 0.78 0.86 0.91 0.90 0.97 1.06 1.26 1.33 1.44
1.67 1.63 1.56 1.50 1.49 1.40 1.38 1.39 1.37 1.33 1.24 1.13 1.02 0.94 0.94 1.03 1.04 1.07 1.19 1.27 1.31 1.18 0.99 0.91 0.93 0.88 0.83 0.74 0.63 0.61 0.62 0.73 0.75 0.78 0.84 0.80 0.72 0.77 0.87 1.07 1.34 1.51 1.57
1.44 1.35 1.30 1.34 1.34 1.25 1.28 1.32 1.29 1.20 1.05 0.97 0.95 0.94 0.97 1.06 1.06 1.16 1.25 1.21 1.11 1.08 0.99 0.93 0.92 0.82 0.69 0.60 0.50 0.50 0.54 0.64 0.73 0.78 0.86 0.87 0.73 0.67 0.74 0.95 1.19 1.38 1.43
1.51 1.38 1.33 1.28 1.23 1.22 1.30 1.31 1.23 1.05 0.93 0.88 0.91 0.97 0.98 0.93 0.94 1.12 1.21 1.15 1.11 1.07 1.03 0.99 0.93 0.80 0.65 0.55 0.49 0.43 0.42 0.47 0.65 0.82 0.85 0.86 0.80 0.74 0.81 0.95 1.12 1.25 1.44
1.52 1.43 1.35 1.27 1.20 1.17 1.22 1.22 1.07 0.86 0.81 0.88 1.00 1.05 0.98 1.04 1.04 1.04 1.10 1.14 1.16 1.05 0.96 0.95 0.89 0.80 0.72 0.62 0.51 0.43 0.41 0.45 0.56 0.73 0.81 0.78 0.74 0.84 1.05 1.18 1.28 1.43 1.66
1.34 1.24 1.18 1.12 1.04 0.97 0.94 0.93 0.83 0.75 0.81 0.94 1.02 1.03 1.04 1.13 1.13 1.05 0.92 0.90 0.92 0.89 0.85 0.84 0.78 0.78 0.78 0.64 0.53 0.52 0.50 0.52 0.59 0.72 0.86 0.91 0.91 1.06 1.24 1.38 1.47 1.59 1.69
1.20 1.12 1.05 0.96 0.84 0.77 0.72 0.69 0.68 0.69 0.80 0.88 0.93 0.95 0.98 1.03 1.09 1.00 0.86 0.80 0.73 0.66 0.64 0.61 0.57 0.63 0.63 0.52 0.49 0.47 0.51 0.58 0.64 0.73 0.89 1.03 1.07 1.17 1.31 1.43 1.50 1.56 1.57
1.04 1.04 0.95 0.85 0.76 0.71 0.67 0.63 0.61 0.64 0.75 0.80 0.77 0.74 0.78 0.82 0.85 0.85 0.79 0.62 0.46 0.39 0.35 0.35 0.37 0.37 0.39 0.37 0.36 0.38 0.45 0.53 0.64 0.78 1.04 1.13 1.11 1.15 1.22 1.33 1.43 1.44 1.42